Total_Precipitation_Accumulation
1.39 1.77 2.18 2.68 3.21 3.86 4.61 4.69 4.14 3.54 2.98 2.47 2.06 1.76 1.46 1.30 1.23 1.04 0.91 0.87 0.86 0.85 0.93 0.79 0.87 1.00 1.01 1.01 1.05 1.09 1.01 0.85 1.01 1.08 0.83 0.66 0.60 0.61 0.56 0.55 0.55 0.51 0.59
1.43 1.85 2.32 2.74 3.06 3.47 4.01 3.94 3.43 2.79 2.12 1.70 1.54 1.40 1.22 1.00 0.84 0.74 0.73 0.64 0.66 0.70 0.79 0.75 0.65 0.69 0.72 0.67 0.71 0.88 0.89 0.77 0.89 1.00 0.89 0.67 0.64 0.57 0.40 0.44 0.45 0.45 0.57
1.25 1.87 2.38 2.68 2.89 3.00 2.87 2.70 2.30 1.75 1.42 1.18 1.08 0.99 0.91 0.79 0.63 0.54 0.51 0.45 0.44 0.46 0.52 0.54 0.55 0.61 0.67 0.66 0.66 0.69 0.73 0.66 0.66 0.80 0.93 0.75 0.56 0.48 0.42 0.41 0.40 0.47 0.62
1.03 1.76 2.06 2.11 2.15 2.13 1.83 1.63 1.50 1.25 1.06 0.92 0.82 0.75 0.63 0.61 0.52 0.45 0.41 0.36 0.35 0.35 0.36 0.38 0.39 0.47 0.56 0.63 0.56 0.56 0.60 0.59 0.51 0.57 0.66 0.67 0.63 0.58 0.46 0.43 0.45 0.49 0.61
0.74 1.08 1.13 1.23 1.27 1.21 1.12 1.13 1.20 1.11 1.02 0.93 0.88 0.85 0.63 0.52 0.46 0.40 0.37 0.32 0.32 0.33 0.31 0.31 0.33 0.36 0.39 0.42 0.44 0.51 0.54 0.55 0.50 0.50 0.56 0.64 0.66 0.66 0.59 0.50 0.48 0.45 0.42
0.48 0.67 0.70 0.71 0.69 0.62 0.69 0.81 0.99 1.05 0.98 0.87 0.81 0.75 0.63 0.53 0.44 0.36 0.34 0.30 0.30 0.32 0.33 0.34 0.36 0.36 0.36 0.38 0.39 0.42 0.45 0.50 0.55 0.53 0.57 0.66 0.70 0.67 0.66 0.59 0.52 0.49 0.43
0.43 0.54 0.66 0.64 0.54 0.48 0.51 0.60 0.69 0.71 0.71 0.72 0.74 0.71 0.63 0.55 0.45 0.37 0.29 0.27 0.26 0.28 0.32 0.36 0.39 0.41 0.42 0.41 0.40 0.41 0.43 0.49 0.56 0.57 0.55 0.57 0.63 0.70 0.72 0.67 0.59 0.60 0.60
0.30 0.33 0.40 0.39 0.35 0.34 0.33 0.38 0.46 0.46 0.47 0.52 0.58 0.59 0.54 0.46 0.40 0.40 0.30 0.25 0.27 0.30 0.33 0.32 0.33 0.36 0.38 0.40 0.43 0.39 0.39 0.49 0.57 0.61 0.70 0.67 0.59 0.74 0.82 0.78 0.78 0.75 0.80
0.12 0.14 0.14 0.15 0.17 0.21 0.26 0.30 0.35 0.36 0.37 0.43 0.47 0.46 0.45 0.44 0.43 0.40 0.32 0.28 0.33 0.33 0.34 0.32 0.33 0.36 0.38 0.41 0.44 0.44 0.48 0.55 0.58 0.65 0.79 0.84 0.79 0.79 0.84 0.89 0.94 0.99 0.96
0.05 0.06 0.07 0.07 0.08 0.09 0.18 0.26 0.28 0.34 0.39 0.41 0.38 0.35 0.38 0.38 0.38 0.35 0.33 0.37 0.33 0.32 0.36 0.39 0.40 0.39 0.40 0.48 0.55 0.54 0.55 0.63 0.71 0.84 0.92 0.96 0.98 0.96 0.88 0.92 0.97 1.00 1.06
0.04 0.03 0.04 0.04 0.05 0.07 0.11 0.18 0.22 0.28 0.31 0.31 0.32 0.37 0.37 0.36 0.35 0.35 0.36 0.38 0.34 0.34 0.36 0.40 0.43 0.43 0.50 0.68 0.86 0.83 0.74 0.79 0.89 0.98 1.09 1.13 1.17 1.16 1.04 0.98 0.95 0.96 1.05
0.03 0.03 0.02 0.02 0.04 0.06 0.07 0.13 0.14 0.15 0.17 0.22 0.24 0.26 0.31 0.33 0.35 0.36 0.38 0.37 0.33 0.30 0.28 0.31 0.34 0.37 0.44 0.61 0.91 1.06 1.08 1.05 0.98 1.04 1.23 1.31 1.26 1.15 1.06 1.05 0.99 0.98 1.07
0.05 0.04 0.03 0.03 0.04 0.05 0.08 0.10 0.11 0.12 0.13 0.17 0.19 0.22 0.25 0.29 0.35 0.38 0.37 0.34 0.34 0.33 0.31 0.32 0.35 0.39 0.42 0.48 0.67 0.88 1.00 1.03 0.99 1.05 1.10 1.13 1.19 1.15 1.07 1.01 0.97 0.96 1.07
0.07 0.07 0.07 0.05 0.06 0.06 0.09 0.12 0.13 0.15 0.15 0.17 0.21 0.25 0.29 0.32 0.34 0.36 0.39 0.38 0.39 0.39 0.38 0.40 0.42 0.42 0.39 0.39 0.51 0.67 0.77 0.82 0.87 0.91 0.95 0.98 1.01 1.07 1.12 1.06 1.00 1.01 1.04
0.09 0.07 0.07 0.07 0.06 0.07 0.09 0.10 0.13 0.17 0.18 0.19 0.22 0.24 0.27 0.30 0.30 0.33 0.37 0.40 0.42 0.43 0.46 0.49 0.48 0.43 0.38 0.38 0.51 0.58 0.53 0.58 0.63 0.66 0.67 0.77 0.94 1.03 1.08 1.01 0.99 1.05 1.05
0.10 0.12 0.15 0.13 0.12 0.12 0.12 0.13 0.17 0.22 0.27 0.30 0.30 0.27 0.30 0.31 0.29 0.32 0.35 0.39 0.42 0.47 0.52 0.52 0.54 0.51 0.38 0.39 0.43 0.41 0.38 0.42 0.49 0.52 0.51 0.52 0.63 0.79 0.90 0.90 0.89 0.94 1.00
0.18 0.22 0.26 0.21 0.16 0.15 0.17 0.20 0.24 0.27 0.32 0.36 0.42 0.43 0.42 0.42 0.40 0.41 0.46 0.50 0.57 0.59 0.61 0.59 0.58 0.55 0.50 0.42 0.35 0.30 0.30 0.36 0.44 0.48 0.48 0.39 0.38 0.54 0.66 0.75 0.78 0.77 0.77
0.21 0.21 0.22 0.24 0.26 0.26 0.27 0.29 0.35 0.40 0.48 0.55 0.63 0.69 0.70 0.70 0.71 0.74 0.73 0.74 0.77 0.76 0.74 0.71 0.71 0.75 0.69 0.57 0.45 0.37 0.30 0.33 0.39 0.44 0.45 0.45 0.45 0.46 0.52 0.64 0.72 0.75 0.72
0.20 0.22 0.22 0.24 0.27 0.34 0.37 0.36 0.41 0.47 0.61 0.72 0.80 0.86 0.90 0.92 0.92 0.90 0.90 0.94 1.00 0.98 0.95 0.92 0.92 0.95 0.98 0.87 0.67 0.56 0.46 0.45 0.46 0.50 0.51 0.51 0.48 0.45 0.40 0.48 0.55 0.60 0.69
0.17 0.20 0.22 0.24 0.29 0.36 0.38 0.44 0.51 0.56 0.61 0.63 0.71 0.85 0.98 1.04 1.00 0.98 1.03 1.10 1.17 1.15 1.13 1.12 1.12 1.12 1.15 1.04 0.77 0.67 0.61 0.66 0.67 0.71 0.68 0.54 0.45 0.39 0.34 0.40 0.48 0.50 0.53
0.16 0.18 0.21 0.25 0.31 0.37 0.43 0.56 0.66 0.66 0.65 0.67 0.73 0.82 0.93 1.03 1.01 1.04 1.07 1.14 1.18 1.19 1.18 1.13 1.10 1.11 1.14 1.05 0.81 0.72 0.69 0.74 0.80 0.75 0.72 0.66 0.50 0.37 0.32 0.33 0.41 0.44 0.52
0.16 0.18 0.21 0.25 0.29 0.36 0.46 0.60 0.73 0.76 0.78 0.83 0.89 0.96 1.03 1.01 0.99 1.08 1.14 1.22 1.28 1.27 1.23 1.24 1.17 1.11 1.10 1.00 0.82 0.67 0.63 0.73 0.85 0.85 0.80 0.75 0.59 0.42 0.37 0.32 0.31 0.33 0.37
0.17 0.17 0.21 0.26 0.31 0.37 0.50 0.66 0.73 0.76 0.80 0.87 0.91 1.00 1.07 1.10 1.10 1.15 1.20 1.34 1.42 1.40 1.33 1.32 1.32 1.24 1.16 1.12 0.91 0.72 0.62 0.69 0.81 0.93 0.94 0.82 0.67 0.55 0.46 0.44 0.42 0.38 0.37
0.17 0.17 0.19 0.24 0.28 0.29 0.36 0.47 0.55 0.61 0.68 0.71 0.73 0.78 0.88 0.95 1.05 1.17 1.19 1.24 1.32 1.38 1.41 1.37 1.30 1.25 1.24 1.27 1.12 0.92 0.77 0.78 0.90 1.00 1.02 0.90 0.82 0.72 0.61 0.57 0.52 0.46 0.44
0.16 0.17 0.20 0.23 0.24 0.25 0.28 0.31 0.41 0.56 0.65 0.65 0.65 0.72 0.80 0.88 1.02 1.16 1.21 1.14 1.16 1.24 1.23 1.16 1.12 1.13 1.15 1.19 1.13 0.98 0.91 0.92 1.01 1.10 1.20 1.15 1.06 0.98 0.88 0.80 0.74 0.69 0.63
0.20 0.23 0.25 0.24 0.24 0.25 0.27 0.30 0.38 0.52 0.63 0.65 0.65 0.68 0.73 0.83 0.95 1.07 1.12 0.99 0.85 0.84 0.83 0.75 0.68 0.66 0.69 0.78 0.81 0.75 0.70 0.74 0.85 0.99 1.16 1.15 1.07 1.04 1.02 0.99 0.93 0.88 0.82